Location: Unspecified
(46.0725°N, 13.7344°E)
Time: 18:14:15
(UTC+01:00)

Cosmos 2058 - Pass Details

Date: 01 November 2019
Orbit: 562 x 584 km, 82.5° (Epoch: 21 November)

Event Time Altitude Azimuth Distance (km) Brightness Sun altitude
Rises 19:01:49 0° 330° (NNW) 2,809 6.9 -23.0°
Reaches altitude 10° 19:05:16 10° 300° (WNW) 1,898 6.4 -23.6°
Maximum altitude 19:06:54 12° 277° (W) 1,757 6.4 -23.9°
Drops below altitude 10° 19:08:32 10° 254° (WSW) 1,886 6.5 -24.2°
Sets 19:11:57 0° 223° (SW) 2,772 6.9 -24.8°
